{"data":{"norad_id":59346,"epoch":"2026-05-24T22:46:47.187264Z","epoch_age_seconds":79304,"freshness":"FRESH","line1":"1 59346U 24059A   26144.94915726  .00000000  00000+0  00000+0 0  9995","line2":"2 59346   0.0165 309.5739 0000147 107.2001 203.3356  1.00271599  7913","mean_motion":1.00271599,"eccentricity":1.47e-5,"inclination_deg":0.0165,"raan_deg":309.5739,"arg_perigee_deg":107.2001,"mean_anomaly_deg":203.3356,"bstar":0,"rev_number":791,"period_min":1436.0995679345,"perigee_km":35786.027281497,"apogee_km":35787.26692615,"semimajor_km":42164.784103823,"source":"CELESTRAK","updated_at":"2026-05-25T13:38:14.145132Z"}}